EW8669 Weather Reports


Display with metric or nautical units.
time (UTC)temp
F
wind
direction
speed
MPH
gust
MPH
rain 1hr
in
rain 24hr
in
rain mn
in
humidity
%
barometer
mb
20260508142522 81 294 3.0 11.0 0.00 0.00 0.00 80 1015.4
20260508142022 81 298 4.0 10.0 0.00 0.00 0.00 82 1015.4
20260508141550 80 5 3.0 10.0 0.00 0.00 0.00 82 1015.4
20260508141022 80 275 4.0 10.0 0.00 0.00 0.00 83 1015.5
20260508140521 80 265 5.0 10.0 0.00 0.00 0.00 83 1015.4
20260508140040 80 279 2.0 9.0 0.00 0.00 0.00 84 1015.5
20260508135521 79 16 5.0 10.0 0.00 0.00 0.00 84 1015.6
20260508135024 79 267 4.0 10.0 0.00 0.00 0.00 86 1015.5
20260508134542 79 275 2.0 10.0 0.00 0.00 0.00 87 1015.5
20260508134021 78 298 5.0 10.0 0.00 0.00 0.00 88 1015.5
20260508133521 78 250 5.0 9.0 0.00 0.00 0.00 88 1015.4
20260508133037 78 238 5.0 10.0 0.00 0.00 0.00 88 1015.4
20260508132526 78 244 7.0 10.0 0.00 0.00 0.00 89 1015.4
20260508132021 77 193 3.0 8.0 0.00 0.00 0.00 89 1015.4
20260508131535 77 306 4.0 8.0 0.00 0.00 0.00 91 1015.4
20260508131021 77 258 4.0 8.0 0.00 0.00 0.00 91 1015.4
20260508130520 76 271 2.0 9.0 0.00 0.00 0.00 92 1015.3
20260508130042 76 251 4.0 9.0 0.00 0.00 0.00 92 1015.4
20260508125521 76 231 4.0 7.0 0.00 0.00 0.00 92 1015.3
20260508125026 76 229 3.0 6.0 0.00 0.00 0.00 92 1015.3
20260508124540 75 0 0.0 4.0 0.00 0.00 0.00 93 1015.1
20260508124023 75 99 1.0 4.0 0.00 0.00 0.00 93 1015.1
20260508123524 75 164 2.0 4.0 0.00 0.00 0.00 93 1015.1
20260508123042 74 165 1.0 4.0 0.00 0.00 0.00 93 1015.0
20260508122522 74 150 1.0 4.0 0.00 0.00 0.00 93 1015.0
20260508122021 74 150 1.0 4.0 0.00 0.00 0.00 93 1015.0
20260508121540 74 178 1.0 3.0 0.00 0.00 0.00 93 1015.0
20260508121021 73 178 1.0 3.0 0.00 0.00 0.00 94 1015.1
20260508120521 73 0 0.0 3.0 0.00 0.00 0.00 94 1015.0
20260508120053 73 177 1.0 3.0 0.00 0.00 0.00 94 1014.9
20260508115520 73 176 2.0 3.0 0.00 0.00 0.00 94 1014.8
20260508115020 73 177 0.0 2.0 0.00 0.00 0.00 94 1014.9
20260508114554 73 0 0.0 3.0 0.00 0.00 0.00 94 1014.7
20260508114023 72 0 1.0 4.0 0.00 0.00 0.00 94 1014.6
20260508113524 72 216 2.0 4.0 0.00 0.00 0.00 94 1014.5
20260508113043 72 221 2.0 5.0 0.00 0.00 0.00 94 1014.5
20260508112522 72 224 3.0 5.0 0.00 0.00 0.00 94 1014.4
20260508112020 72 223 3.0 5.0 0.00 0.00 0.00 94 1014.2
20260508111542 72 221 3.0 5.0 0.00 0.00 0.00 94 1014.2
20260508111024 72 214 3.0 4.0 0.00 0.00 0.00 94 1014.2
20260508110522 72 213 3.0 4.0 0.00 0.00 0.00 94 1014.1
20260508110040 72 222 2.0 4.0 0.00 0.00 0.00 94 1014.0
20260508105521 71 274 0.0 1.0 0.00 0.00 0.00 93 1013.9
20260508105021 71 0 0.0 0.0 0.00 0.00 0.00 93 1013.8
20260508104547 71 0 0.0 0.0 0.00 0.00 0.00 93 1013.7
20260508104027 71 0 0.0 0.0 0.00 0.00 0.00 93 1013.6
20260508103521 71 0 0.0 0.0 0.00 0.00 0.00 93 1013.7
20260508103055 71 0 0.0 0.0 0.00 0.00 0.00 92 1013.7
20260508102522 71 0 0.0 0.0 0.00 0.00 0.00 92 1013.6
20260508102021 71 0 0.0 0.0 0.00 0.00 0.00 92 1013.5
20260508101550 71 0 0.0 0.0 0.00 0.00 0.00 92 1013.5
20260508101026 71 0 0.0 0.0 0.00 0.00 0.00 92 1013.4
20260508100520 71 0 0.0 0.0 0.00 0.00 0.00 92 1013.2
20260508100041 71 0 0.0 0.0 0.00 0.00 0.00 92 1013.2
20260508095521 71 0 0.0 0.0 0.00 0.00 0.00 92 1013.2
20260508095020 71 0 0.0 0.0 0.00 0.00 0.00 91 1013.1
20260508094540 71 0 0.0 0.0 0.00 0.00 0.00 91 1013.0
20260508094023 71 0 0.0 0.0 0.00 0.00 0.00 92 1013.0
20260508093521 71 0 0.0 0.0 0.00 0.00 0.00 91 1013.0
20260508093040 71 0 0.0 0.0 0.00 0.00 0.00 91 1013.0
20260508092522 72 0 0.0 0.0 0.00 0.00 0.00 91 1013.0
20260508092021 72 0 0.0 0.0 0.00 0.00 0.00 91 1012.9
20260508091542 72 0 0.0 0.0 0.00 0.00 0.00 90 1013.0
20260508091021 72 0 0.0 0.0 0.00 0.00 0.00 90 1013.0
20260508090523 72 0 0.0 0.0 0.00 0.00 0.00 90 1013.0
20260508090050 72 0 0.0 0.0 0.00 0.00 0.00 90 1012.9
20260508085524 72 0 0.0 0.0 0.00 0.00 0.00 90 1012.9
20260508085021 72 0 0.0 0.0 0.00 0.00 0.00 90 1012.9
20260508084540 72 0 0.0 0.0 0.00 0.00 0.00 90 1012.9
20260508084021 72 0 0.0 0.0 0.00 0.00 0.00 90 1013.0
20260508083522 72 0 0.0 0.0 0.00 0.00 0.00 90 1013.0
20260508083042 72 0 0.0 0.0 0.00 0.00 0.00 89 1012.9
20260508082524 73 0 0.0 0.0 0.00 0.00 0.00 89 1012.9
20260508082021 73 0 0.0 0.0 0.00 0.00 0.00 89 1013.0
20260508081536 73 0 0.0 0.0 0.00 0.00 0.00 89 1012.9
20260508081023 73 0 0.0 0.0 0.00 0.00 0.00 89 1013.0
20260508080521 73 0 0.0 0.0 0.00 0.00 0.00 89 1013.1
20260508080035 73 0 0.0 0.0 0.00 0.00 0.00 88 1013.0
20260508075521 73 0 0.0 0.0 0.00 0.00 0.00 88 1013.0
20260508075021 73 0 0.0 0.0 0.00 0.00 0.00 88 1013.0
20260508074543 73 0 0.0 0.0 0.00 0.00 0.00 88 1012.9
20260508074022 73 0 0.0 0.0 0.00 0.00 0.00 88 1013.1
20260508073523 73 0 0.0 0.0 0.00 0.00 0.00 88 1013.0
20260508073043 73 0 0.0 0.0 0.00 0.00 0.00 88 1013.0
20260508072521 73 0 0.0 0.0 0.00 0.00 0.00 87 1013.0
20260508072021 73 0 0.0 0.0 0.00 0.00 0.00 87 1013.0
20260508071543 73 0 0.0 0.0 0.00 0.00 0.00 87 1013.0
20260508071022 73 0 0.0 0.0 0.00 0.00 0.00 87 1013.0
20260508070521 73 0 0.0 0.0 0.00 0.00 0.00 86 1013.1
20260508070038 73 0 0.0 0.0 0.00 0.00 0.00 86 1013.0
20260508065521 74 0 0.0 0.0 0.00 0.00 0.00 86 1013.2
20260508065024 74 0 0.0 0.0 0.00 0.00 0.00 85 1013.0
20260508064540 74 0 0.0 0.0 0.00 0.00 0.00 85 1013.0
20260508064022 74 0 0.0 0.0 0.00 0.00 0.00 84 1013.0
20260508063522 74 0 0.0 0.0 0.00 0.00 0.00 84 1013.1
20260508063057 74 0 0.0 0.0 0.00 0.00 0.00 84 1013.2
20260508062526 74 0 0.0 0.0 0.00 0.00 0.00 83 1013.1
20260508062023 74 0 0.0 0.0 0.00 0.00 0.00 83 1013.2
20260508061542 74 0 0.0 0.0 0.00 0.00 0.00 83 1013.1
20260508061021 74 0 0.0 0.0 0.00 0.00 0.00 83 1013.2
20260508060521 74 0 0.0 0.0 0.00 0.00 0.00 82 1013.3
20260508060042 75 0 0.0 0.0 0.00 0.00 0.00 82 1013.4
20260508055521 75 0 0.0 0.0 0.00 0.00 0.00 82 1013.3
20260508055021 75 0 0.0 1.0 0.00 0.00 0.00 82 1013.3
20260508054542 75 0 0.0 1.0 0.00 0.00 0.00 81 1013.3
20260508054021 75 0 0.0 1.0 0.00 0.00 0.00 81 1013.4
20260508053522 75 0 0.0 3.0 0.00 0.00 0.00 81 1013.5
20260508053042 75 0 0.0 3.0 0.00 0.00 0.00 80 1013.4
20260508052523 75 0 0.0 4.0 0.00 0.00 0.00 80 1013.4
20260508052021 76 280 1.0 4.0 0.00 0.00 0.00 80 1013.5
20260508051540 76 280 2.0 4.0 0.00 0.00 0.00 79 1013.6
20260508051021 76 305 2.0 4.0 0.00 0.00 0.00 79 1013.6
20260508050521 76 284 1.0 4.0 0.00 0.00 0.00 79 1013.5
20260508050043 76 267 2.0 5.0 0.00 0.00 0.00 79 1013.6
20260508045520 76 284 0.0 5.0 0.00 0.00 0.00 78 1013.6
20260508045022 76 269 2.0 6.0 0.00 0.00 0.00 78 1013.6
20260508044540 76 257 3.0 6.0 0.00 0.00 0.00 78 1013.6
20260508044020 76 275 2.0 7.0 0.00 0.00 0.00 77 1013.7
20260508043520 77 284 2.0 8.0 0.00 0.00 0.00 77 1013.7
20260508043054 77 287 2.0 9.0 0.00 0.00 0.00 76 1013.7
20260508042522 77 274 3.0 9.0 0.00 0.00 0.00 76 1013.7
20260508042024 77 304 1.0 4.0 0.00 0.00 0.00 75 1013.6
20260508041548 77 306 2.0 5.0 0.00 0.00 0.00 75 1013.7
20260508041021 77 288 1.0 6.0 0.00 0.00 0.00 74 1013.6
20260508040520 77 298 2.0 6.0 0.00 0.00 0.00 74 1013.7
20260508040039 78 284 2.0 7.0 0.00 0.00 0.00 73 1013.5
20260508035521 78 275 2.0 7.0 0.00 0.00 0.00 73 1013.5
20260508035022 78 274 2.0 7.0 0.00 0.00 0.00 72 1013.6
20260508034542 78 277 2.0 9.0 0.00 0.00 0.00 72 1013.5
20260508034020 78 296 3.0 9.0 0.00 0.00 0.00 72 1013.5
20260508033520 78 288 3.0 7.0 0.00 0.00 0.00 71 1013.4
20260508033041 79 284 2.0 9.0 0.00 0.00 0.00 71 1013.4
20260508032523 79 271 3.0 9.0 0.00 0.00 0.00 70 1013.3
20260508032022 79 264 3.0 8.0 0.00 0.00 0.00 70 1013.3
20260508031541 79 288 3.0 8.0 0.00 0.00 0.00 69 1013.4
20260508031021 79 262 3.0 8.0 0.00 0.00 0.00 69 1013.3
20260508030522 79 271 5.0 9.0 0.00 0.00 0.00 68 1013.3
20260508030043 80 294 4.0 9.0 0.00 0.00 0.00 67 1013.4
20260508025522 80 257 4.0 8.0 0.00 0.00 0.00 66 1013.4
20260508025025 80 277 3.0 6.0 0.00 0.00 0.00 65 1013.3
20260508024535 80 275 2.0 5.0 0.00 0.00 0.00 64 1013.3
20260508024023 80 276 2.0 7.0 0.00 0.00 0.00 63 1013.3
20260508023521 80 289 3.0 7.0 0.00 0.00 0.00 63 1013.2
20260508023042 81 273 3.0 7.0 0.00 0.00 0.00 62 1013.1
20260508022520 81 268 2.0 7.0 0.00 0.00 0.00 61 1013.2
20260508022022 81 273 3.0 8.0 0.00 0.00 0.00 60 1013.3
20260508021546 81 278 4.0 8.0 0.00 0.00 0.00 59 1013.3
20260508021021 81 267 4.0 7.0 0.00 0.00 0.00 58 1013.2
20260508020521 81 270 2.0 6.0 0.00 0.00 0.00 56 1013.3
20260508020047 81 283 2.0 7.0 0.00 0.00 0.00 55 1013.3
20260508015521 82 274 3.0 8.0 0.00 0.00 0.00 54 1013.2
20260508015021 82 270 3.0 8.0 0.00 0.00 0.00 53 1013.2
20260508014541 82 277 2.0 8.0 0.00 0.00 0.00 52 1013.1
20260508014021 82 275 2.0 8.0 0.00 0.00 0.00 52 1013.2
20260508013520 82 263 3.0 6.0 0.00 0.00 0.00 51 1013.0
20260508013052 82 267 1.0 7.0 0.00 0.00 0.00 50 1013.0
20260508012524 83 261 2.0 7.0 0.00 0.00 0.00 49 1012.8
20260508012022 83 261 3.0 7.0 0.00 0.00 0.00 49 1012.8
20260508011544 83 282 2.0 4.0 0.00 0.00 0.00 48 1012.8
20260508011022 83 272 1.0 6.0 0.00 0.00 0.00 48 1012.9
20260508010521 83 295 2.0 9.0 0.00 0.00 0.00 48 1012.9
20260508010041 83 310 1.0 9.0 0.00 0.00 0.00 47 1013.0
20260508005520 83 284 4.0 9.0 0.00 0.00 0.00 47 1012.7
20260508005022 84 309 2.0 8.0 0.00 0.00 0.00 49 1012.7
20260508004535 84 285 3.0 8.0 0.00 0.00 0.00 48 1012.7
20260508004022 84 296 3.0 8.0 0.00 0.00 0.00 46 1012.6
20260508003525 84 290 1.0 4.0 0.00 0.00 0.00 45 1012.5
20260508003042 85 274 1.0 4.0 0.00 0.00 0.00 44 1012.4
20260508002522 85 290 1.0 4.0 0.00 0.00 0.00 44 1012.4
20260508002023 85 293 1.0 8.0 0.00 0.00 0.00 45 1012.4
20260508001606 86 288 1.0 8.0 0.00 0.00 0.00 43 1012.3
20260508001021 86 276 3.0 7.0 0.00 0.00 0.00 42 1012.3
20260508000521 86 275 2.0 7.0 0.00 0.00 0.00 43 1012.2
20260508000040 87 289 2.0 7.0 0.00 0.00 0.00 42 1012.2
20260507235521 87 275 2.0 7.0 0.00 0.00 0.00 42 1012.2
20260507235021 88 290 1.0 10.0 0.00 0.00 0.00 42 1012.2
20260507234540 88 287 3.0 10.0 0.00 0.00 0.00 41 1012.2
20260507234053 88 275 3.0 8.0 0.00 0.00 0.00 42 1012.1
20260507233521 89 287 3.0 8.0 0.00 0.00 0.00 42 1012.1
20260507233037 89 282 3.0 9.0 0.00 0.00 0.00 43 1012.1
20260507232521 89 289 3.0 9.0 0.00 0.00 0.00 44 1012.1
20260507232020 89 265 4.0 12.0 0.00 0.00 0.00 43 1012.1
20260507231545 90 288 3.0 12.0 0.00 0.00 0.00 44 1012.1
20260507231021 90 293 3.0 17.0 0.00 0.00 0.00 44 1011.9
20260507230521 90 296 6.0 17.0 0.00 0.00 0.00 45 1012.0
20260507230041 91 265 8.0 16.0 0.00 0.00 0.00 46 1012.0
20260507225521 92 263 6.0 10.0 0.00 0.00 0.00 44 1011.9
20260507225021 92 238 3.0 7.0 0.00 0.00 0.00 43 1011.8
20260507224544 91 252 4.0 8.0 0.00 0.00 0.00 42 1011.8
20260507224021 91 262 3.0 10.0 0.00 0.00 0.00 44 1011.8
20260507223520 91 240 6.0 10.0 0.00 0.00 0.00 46 1011.8
20260507223040 92 264 6.0 10.0 0.00 0.00 0.00 45 1011.9
20260507222522 92 275 6.0 9.0 0.00 0.00 0.00 48 1011.9
20260507222020 92 254 4.0 12.0 0.00 0.00 0.00 45 1011.9
20260507221536 92 236 5.0 12.0 0.00 0.00 0.00 44 1012.0
20260507221022 92 270 7.0 12.0 0.00 0.00 0.00 43 1012.0
20260507220521 92 242 8.0 10.0 0.00 0.00 0.00 43 1012.0
20260507220044 92 298 4.0 9.0 0.00 0.00 0.00 43 1012.0
20260507215524 92 235 5.0 9.0 0.00 0.00 0.00 41 1012.0
20260507215020 92 261 3.0 12.0 0.00 0.00 0.00 44 1011.9
20260507214544 92 250 7.0 12.0 0.00 0.00 0.00 42 1011.9
20260507214021 92 252 8.0 12.0 0.00 0.00 0.00 42 1012.0
20260507213523 92 229 6.0 18.0 0.00 0.00 0.00 43 1012.0
20260507213040 92 253 6.0 18.0 0.00 0.00 0.00 44 1012.1
20260507212521 92 257 8.0 18.0 0.00 0.00 0.00 46 1012.0
20260507212021 92 244 6.0 9.0 0.00 0.00 0.00 47 1012.1
20260507211536 91 259 3.0 8.0 0.00 0.00 0.00 47 1012.1
20260507211020 91 242 3.0 9.0 0.00 0.00 0.00 51 1012.2
20260507210521 91 220 4.0 9.0 0.00 0.00 0.00 49 1012.2
20260507210047 91 217 6.0 13.0 0.00 0.00 0.00 48 1012.2
20260507205522 91 236 4.0 13.0 0.00 0.00 0.00 51 1012.3
20260507205021 90 254 9.0 13.0 0.00 0.00 0.00 49 1012.2
20260507204545 90 248 7.0 13.0 0.00 0.00 0.00 52 1012.3
20260507204024 90 258 6.0 13.0 0.00 0.00 0.00 51 1012.4
20260507203520 90 253 7.0 13.0 0.00 0.00 0.00 53 1012.3
20260507203040 90 217 6.0 15.0 0.00 0.00 0.00 52 1012.4
20260507202522 89 223 8.0 15.0 0.00 0.00 0.00 55 1012.5
20260507202021 89 204 7.0 15.0 0.00 0.00 0.00 53 1012.5
20260507201546 89 221 9.0 15.0 0.00 0.00 0.00 54 1012.5
20260507201021 89 211 11.0 16.0 0.00 0.00 0.00 56 1012.7
20260507200521 89 254 10.0 16.0 0.00 0.00 0.00 56 1012.8
20260507200036 89 227 10.0 14.0 0.00 0.00 0.00 57 1012.9
20260507195521 89 221 11.0 16.0 0.00 0.00 0.00 55 1013.0
20260507195021 89 225 10.0 16.0 0.00 0.00 0.00 54 1012.9
20260507194541 89 221 9.0 14.0 0.00 0.00 0.00 57 1013.0
20260507194023 89 209 8.0 16.0 0.00 0.00 0.00 56 1013.1
20260507193521 89 234 9.0 16.0 0.00 0.00 0.00 58 1013.2
20260507193042 88 238 8.0 15.0 0.00 0.00 0.00 59 1013.1
20260507192521 88 205 9.0 15.0 0.00 0.00 0.00 56 1013.1
20260507192021 88 211 9.0 15.0 0.00 0.00 0.00 56 1013.4
20260507191540 88 239 9.0 18.0 0.00 0.00 0.00 59 1013.4
20260507191021 88 229 10.0 18.0 0.00 0.00 0.00 56 1013.5
20260507190521 88 230 10.0 17.0 0.00 0.00 0.00 56 1013.6
20260507190037 88 252 9.0 18.0 0.00 0.00 0.00 55 1013.5
20260507185521 88 215 10.0 18.0 0.00 0.00 0.00 56 1013.7
20260507185024 88 227 11.0 16.0 0.00 0.00 0.00 56 1013.9
20260507184534 88 229 11.0 16.0 0.00 0.00 0.00 55 1013.9
20260507184024 88 227 9.0 18.0 0.00 0.00 0.00 57 1014.1
20260507183521 88 252 11.0 19.0 0.00 0.00 0.00 55 1014.1
20260507183043 87 202 6.0 18.0 0.00 0.00 0.00 56 1014.2
20260507182522 87 194 10.0 18.0 0.00 0.00 0.00 56 1014.2
20260507182022 87 205 9.0 17.0 0.00 0.00 0.00 56 1014.4
20260507181540 87 225 11.0 16.0 0.00 0.00 0.00 53 1014.5
20260507181022 87 241 10.0 16.0 0.00 0.00 0.00 57 1014.7
20260507180526 87 209 8.0 16.0 0.00 0.00 0.00 56 1014.8
20260507180040 87 243 10.0 18.0 0.00 0.00 0.00 56 1014.9
20260507175521 87 221 8.0 18.0 0.00 0.00 0.00 57 1015.0
20260507175025 86 254 11.0 16.0 0.00 0.00 0.00 54 1015.0
20260507174545 86 232 9.0 16.0 0.00 0.00 0.00 55 1014.9
20260507174021 86 248 11.0 17.0 0.00 0.00 0.00 56 1015.0
20260507173524 86 227 12.0 18.0 0.00 0.00 0.00 57 1015.0
20260507173036 86 247 10.0 20.0 0.00 0.00 0.00 58 1015.0
20260507172521 85 215 14.0 20.0 0.00 0.00 0.00 56 1015.0
20260507172020 85 234 12.0 17.0 0.00 0.00 0.00 57 1014.9
20260507171537 85 227 13.0 17.0 0.00 0.00 0.00 58 1015.0
20260507171022 85 242 9.0 17.0 0.00 0.00 0.00 58 1015.1
20260507170521 85 240 11.0 18.0 0.00 0.00 0.00 59 1015.1
20260507170047 85 221 13.0 18.0 0.00 0.00 0.00 59 1015.1
20260507165521 84 232 12.0 17.0 0.00 0.00 0.00 59 1015.1
20260507165022 84 229 12.0 17.0 0.00 0.00 0.00 59 1015.1
20260507164541 84 247 11.0 16.0 0.00 0.00 0.00 58 1015.3
20260507164020 84 225 8.0 16.0 0.00 0.00 0.00 58 1015.3
20260507163523 84 221 9.0 16.0 0.00 0.00 0.00 60 1015.4
20260507163039 83 223 11.0 16.0 0.00 0.00 0.00 59 1015.5
20260507162522 83 232 11.0 16.0 0.00 0.00 0.00 64 1015.5
20260507162021 83 224 8.0 16.0 0.00 0.00 0.00 66 1015.5
20260507161536 83 234 11.0 16.0 0.00 0.00 0.00 63 1015.5
20260507161021 83 250 11.0 15.0 0.00 0.00 0.00 62 1015.5
20260507160524 83 247 11.0 15.0 0.00 0.00 0.00 65 1015.7
20260507160045 83 248 7.0 15.0 0.00 0.00 0.00 65 1015.6
20260507155521 82 255 9.0 16.0 0.00 0.00 0.00 65 1015.7
20260507155021 82 243 9.0 16.0 0.00 0.00 0.00 66 1015.6
20260507154544 82 242 10.0 16.0 0.00 0.00 0.00 66 1015.8
20260507154022 82 259 10.0 16.0 0.00 0.00 0.00 67 1015.8
20260507153520 82 261 10.0 15.0 0.00 0.00 0.00 67 1015.8
20260507153048 82 262 7.0 15.0 0.00 0.00 0.00 67 1015.9
20260507152520 82 244 7.0 15.0 0.00 0.00 0.00 67 1016.0
20260507152025 82 240 10.0 14.0 0.00 0.00 0.00 66 1016.1
20260507151540 82 259 6.0 12.0 0.00 0.00 0.00 67 1016.2
20260507151022 81 235 8.0 14.0 0.00 0.00 0.00 69 1016.1
20260507150521 81 234 8.0 14.0 0.00 0.00 0.00 65 1016.0
20260507150043 81 227 8.0 12.0 0.00 0.00 0.00 71 1016.1
20260507145520 81 227 7.0 14.0 0.00 0.00 0.00 69 1016.1
20260507145022 81 229 10.0 14.0 0.00 0.00 0.00 72 1016.1
20260507144540 81 238 9.0 13.0 0.00 0.00 0.00 71 1016.2
20260507144022 80 265 8.0 13.0 0.00 0.00 0.00 74 1016.1
20260507143521 80 223 6.0 10.0 0.00 0.00 0.00 76 1016.0
20260507143045 80 209 6.0 9.0 0.00 0.00 0.00 76 1016.1